Home   Weather   St. Peter Port   Past weeks

Flag for Guernsey Past Weather in St. Peter Port, Guernsey — Yesterday and Last 2 Weeks

Now
68 °F

Sunny.


Feels Like: 68 °F
Forecast: 57 / 67 °F
Wind: 15 mph from East

Location: Guernsey Airport

Current Time: May 25, 2017 at 11:30:59 am

Latest Report: May 25, 2017 at 10:50 am


Visibility: 10 mi

Pressure: 30.18 "Hg

Humidity: 69%

Dew Point: 57 °F

Location of St. Peter PortLocation

Past Weather in St. Peter Port — Graph

°F

St. Peter Port Temperature Yesterday

Maximum temperature yesterday: 63 °F (at 3:50 pm)
Minimum temperature yesterday: 54 °F (at 3:50 am)
Average temperature yesterday: 59 °F

High & Low Weather Summary for the Past Weeks

 TemperatureHumidityPressure
High68 °F (May 16, 3:20 pm)100% (May 11, 4:20 am)30.33 "Hg (May 11, 4:20 am)
Low46 °F (May 19, 3:50 am)55% (May 21, 1:50 pm)29.30 "Hg (May 11, 2:50 pm)
Average57 °F85%29.98 "Hg
* Reported May 10 10:20 am — May 25 10:20 am, St. Peter Port. Weather by CustomWeather, © 2017

Note: Actual official high and low records may vary slightly from our data, if they occured in-between our weather recording intervals... More about our weather records

Advertising

St. Peter Port Weather History for the Previous 24 Hours

Scroll right to see more
 ConditionsComfort  
Time TempWeatherWind HumidityBarometerVisibility
10:20 am
Thu, May 25
66 °FSunny.16 mph68%30.18 "Hg10 mi
9:50 am66 °FSunny.15 mph68%30.18 "Hg10 mi
9:20 am64 °FSunny.14 mph73%30.21 "Hg10 mi
8:50 am64 °FSunny.14 mph73%30.21 "Hg10 mi
8:20 am63 °FSunny.15 mph77%30.21 "Hg10 mi
7:50 am61 °FSunny.14 mph83%30.21 "Hg10 mi
7:20 am59 °FSunny.15 mph88%30.18 "Hg10 mi
6:50 am59 °FSunny.14 mph88%30.18 "Hg10 mi
6:20 am57 °FSunny.12 mph88%30.18 "Hg10 mi
5:50 am57 °FSunny.12 mph88%30.18 "Hg10 mi
5:20 am55 °FSunny.10 mph94%30.18 "Hg10 mi
4:50 am55 °FClear.9 mph94%30.18 "Hg10 mi
4:20 am55 °FClear.8 mph94%30.18 "Hg10 mi
3:50 am54 °FClear.7 mph100%30.18 "Hg10 mi
8:50 pm
Wed, May 24
57 °FSunny.6 mph88%30.24 "Hg10 mi
8:20 pm59 °FSunny.7 mph88%30.24 "Hg10 mi
7:50 pm61 °FSunny.7 mph83%30.24 "Hg10 mi
7:20 pm61 °FSunny.9 mph83%30.24 "Hg10 mi
6:50 pm61 °FPassing clouds.9 mph83%30.27 "HgN/A
6:20 pm61 °FPassing clouds.10 mph83%30.27 "HgN/A
5:50 pm63 °FPassing clouds.8 mph77%30.27 "HgN/A
5:20 pm63 °FPassing clouds.8 mph77%30.27 "HgN/A
4:50 pm63 °FPassing clouds.9 mph77%30.27 "HgN/A
4:20 pm63 °FPassing clouds.8 mph83%30.30 "HgN/A
3:50 pm63 °FPassing clouds.6 mph77%30.30 "HgN/A
3:20 pm61 °FScattered clouds.7 mph88%30.30 "HgN/A
2:50 pm61 °FBroken clouds.6 mph88%30.30 "HgN/A
2:20 pm61 °FPartly sunny.5 mph83%30.30 "HgN/A
1:50 pm61 °FPartly sunny.5 mph88%30.30 "HgN/A
1:20 pm61 °FPartly sunny.3 mph88%30.30 "HgN/A
12:50 pm61 °FBroken clouds.2 mph83%30.33 "HgN/A
12:20 pm61 °FBroken clouds.2 mph83%30.33 "HgN/A
11:50 am61 °FBroken clouds.2 mph83%30.33 "HgN/A
11:20 am61 °FBroken clouds.5 mph83%30.33 "HgN/A
Weather by CustomWeather, © 2017

See weather overviewHow to use our weather pages